Location: La Junie
(44.7428°N, 2.1773°E)
Time: 08:33:00
(UTC+00:00)

Cosmos 1455 Rocket - Pass Details

Date: 15 May 2026
Orbit: 597 x 623 km, 82.5° (Epoch: 5 June)

Event Time Altitude Azimuth Distance (km) Brightness Sun altitude
Rises 19:42:34 0° 180° (S) 2,884 6.2 -5.4°
Reaches altitude 10° 19:44:48 10° 178° (S) 1,980 5.3 -5.7°
Maximum altitude 19:49:09 68° 96° (E) 669 3.1 -6.3°
Drops below altitude 10° 19:53:31 10° 14° (NNE) 1,983 6.0 -7.0°
Sets 19:55:45 0° 12° (NNE) 2,889 6.8 -7.3°
